Location: Fort Worth, Tx
(32.7431°N, 97.3695°W)
Time: 23:22:00
(UTC-05:00)

Tiros 1 - All Passes

Search period start: 29 January 2023 00:00
Search period end: 08 February 2023 00:00
Orbit: 628 x 662 km, 48.4° (Epoch: 29 January)

Date Brightness Start Highest point End Pass type
(mag) Time Alt. Az. Time Alt. Az. Time Alt. Az.
29 Jan - 01:39:38 10° S 01:42:59 20° SE 01:46:22 10° E night (unlit)
29 Jan - 03:20:15 10° WSW 03:24:48 58° NW 03:29:24 10° NE night (unlit)
29 Jan - 05:04:42 10° WNW 05:07:43 17° NNW 05:10:44 10° NNE visible
29 Jan - 06:49:51 10° NNW 06:51:28 12° N 06:53:06 10° NNE visible
29 Jan - 08:31:25 10° NNW 08:35:05 22° NNE 08:38:45 10° ENE daylight
29 Jan - 10:12:56 10° NW 10:17:42 88° SW 10:22:29 10° SE daylight
29 Jan - 11:57:25 10° WSW 11:59:18 12° SW 12:01:13 10° SSW daylight
30 Jan - 02:03:41 10° SSW 02:08:08 51° SE 02:12:38 10° ENE night (unlit)
30 Jan - 03:46:25 10° W 03:50:26 29° NNW 03:54:31 10° NNE night (unlit)
30 Jan - 05:31:52 10° NNW 05:33:50 12° N 05:35:48 10° NNE visible
30 Jan - 07:15:12 10° NNW 07:17:40 14° NNE 07:20:08 10° NE visible
30 Jan - 08:56:26 10° NW 09:00:51 38° NNE 09:05:19 10° E daylight
30 Jan - 10:38:39 10° WNW 10:42:59 35° SW 10:47:19 10° SSE daylight
31 Jan - 00:48:41 10° S 00:51:45 18° SE 00:54:50 10° E night (unlit)
31 Jan - 02:28:56 10° WSW 02:33:30 65° NW 02:38:07 10° NE night (unlit)
31 Jan - 04:13:12 10° WNW 04:16:20 18° NNW 04:19:29 10° NNE night (unlit)
31 Jan - 05:58:32 10° NNW 06:00:04 11° N 06:01:36 10° NNE visible
31 Jan - 07:40:11 10° NNW 07:43:42 20° NNE 07:47:14 10° ENE visible
31 Jan - 09:21:38 10° NW 09:26:23 83° NE 09:31:10 10° SE daylight
31 Jan - 11:05:36 10° W 11:08:03 14° SW 11:10:31 10° SSW daylight
01 Feb - 01:12:29 10° SSW 01:16:51 45° SE 01:21:17 10° ENE night (unlit)
01 Feb - 02:54:59 10° W 02:59:06 31° NNW 03:03:15 10° NNE night (unlit)
01 Feb - 04:40:22 10° NW 04:42:26 13° N 04:44:30 10° NNE visible
01 Feb - 06:23:58 10° NNW 06:26:16 13° NNE 06:28:34 10° NE visible
01 Feb - 08:05:11 10° NW 08:09:31 35° NNE 08:13:52 10° E daylight
01 Feb - 09:47:16 10° WNW 09:51:41 40° SW 09:56:08 10° SSE daylight
01 Feb - 23:57:47 10° SSE 00:00:30 16° SE 00:03:13 10° E night (unlit)
02 Feb - 01:37:36 10° WSW 01:42:11 73° NW 01:46:49 10° NE night (unlit)
02 Feb - 03:21:42 10° WNW 03:24:57 18° NNW 03:28:14 10° NNE night (unlit)
02 Feb - 05:07:10 10° NNW 05:08:38 11° N 05:10:07 10° NNE visible
02 Feb - 06:48:57 10° NNW 06:52:19 19° NNE 06:55:42 10° ENE visible
02 Feb - 08:30:21 10° NW 08:35:04 75° NE 08:39:49 10° SE daylight
02 Feb - 10:13:56 10° W 10:16:48 16° SW 10:19:39 10° SSW daylight
03 Feb - 00:21:18 10° SSW 00:25:35 40° SE 00:29:54 10° ENE night (unlit)
03 Feb - 02:03:34 10° W 02:07:45 34° NNW 02:11:59 10° NE night (unlit)
03 Feb - 03:48:51 10° NW 03:51:01 13° N 03:53:12 10° NNE night (unlit)
03 Feb - 05:32:43 10° NNW 05:34:51 13° N 05:36:59 10° NE visible
03 Feb - 07:13:56 10° NW 07:18:10 32° NNE 07:22:25 10° E visible
03 Feb - 08:55:54 10° WNW 09:00:24 45° SW 09:04:55 10° SSE daylight
03 Feb - 23:06:59 10° SSE 23:09:14 14° SE 23:11:31 10° E night (unlit)
04 Feb - 00:46:17 10° SW 00:50:53 82° NW 00:55:30 10° NE night (unlit)
04 Feb - 02:30:12 10° WNW 02:33:34 20° NNW 02:36:57 10° NNE night (unlit)
04 Feb - 04:15:46 10° NNW 04:17:13 11° N 04:18:40 10° NNE night (unlit)
04 Feb - 05:57:43 10° NNW 06:00:56 18° NNE 06:04:09 10° ENE visible
04 Feb - 07:39:04 10° NW 07:43:45 67° NE 07:48:27 10° ESE visible
04 Feb - 09:22:20 10° W 09:25:31 18° SW 09:28:43 10° S daylight
04 Feb - 23:30:08 10° SSW 23:34:18 35° SE 23:38:30 10° ENE night (unlit)
05 Feb - 01:12:08 10° W 01:16:25 37° NNW 01:20:42 10° NE night (unlit)
05 Feb - 02:57:18 10° NW 02:59:36 13° NNW 03:01:54 10° NNE night (unlit)
05 Feb - 04:41:27 10° NNW 04:43:26 12° N 04:45:24 10° NE visible
05 Feb - 06:22:40 10° NNW 06:26:47 30° NNE 06:30:55 10° E visible
05 Feb - 08:04:32 10° WNW 08:09:06 51° SW 08:13:41 10° SSE daylight
05 Feb - 22:16:20 10° SSE 22:18:00 12° SE 22:19:38 10° ESE night (unlit)
05 Feb - 23:54:58 10° SW 23:59:34 89° SE 00:04:12 10° NE night (unlit)
06 Feb - 01:38:42 10° WNW 01:42:11 21° NNW 01:45:42 10° NNE night (unlit)
06 Feb - 03:24:21 10° NNW 03:25:47 11° N 03:27:14 10° NNE night (unlit)
06 Feb - 05:06:29 10° NNW 05:09:32 17° NNE 05:12:35 10° ENE visible
06 Feb - 06:47:46 10° NW 06:52:24 60° NE 06:57:04 10° ESE visible
06 Feb - 08:30:47 10° W 08:34:14 20° SW 08:37:42 10° S daylight
06 Feb - 22:38:59 10° SSW 22:43:02 31° SE 22:47:05 10° ENE night (unlit)
07 Feb - 00:20:43 10° WSW 00:25:03 40° NNW 00:29:25 10° NE night (unlit)
07 Feb - 02:05:46 10° NW 02:08:11 14° NNW 02:10:37 10° NNE night (unlit)
07 Feb - 03:50:12 10° NNW 03:52:00 12° N 03:53:49 10° NNE night (unlit)
07 Feb - 05:31:25 10° NNW 05:35:25 27° NNE 05:39:26 10° E visible
07 Feb - 07:13:11 10° WNW 07:17:47 58° SW 07:22:25 10° SE visible
07 Feb - 21:26:25 10° SE 21:26:43 10° SE 21:27:02 10° ESE night (unlit)
07 Feb - 23:03:40 10° SW 23:08:15 80° SE 23:12:52 10° NE night (unlit)
